GW6381 Weather Reports


time (UTC)temp
C
wind
direction
speed
KPH
gust
KPH
rain 1hr
cm
rain 24hr
cm
rain mn
cm
humidity
%
barometer
mb
20260510100510 9 79 0.0 3.2 0.00 0.00 0.00 90 1008.8
20260510100012 9 129 0.0 4.8 0.00 0.00 0.00 90 1008.4
20260510095504 9 141 0.0 4.8 0.00 0.00 0.00 90 1008.2
20260510095004 9 156 1.6 4.8 0.00 0.00 0.00 91 1008.1
20260510094523 9 145 0.0 4.8 0.00 0.00 0.00 91 1007.9
20260510094008 9 87 1.6 4.8 0.00 0.00 0.00 91 1007.9
20260510093510 9 131 0.0 4.8 0.00 0.00 0.00 91 1008.2
20260510093031 8 131 1.6 4.8 0.00 0.00 0.00 90 1008.3
20260510092508 8 351 0.0 3.2 0.00 0.00 0.00 89 1008.4
20260510092009 8 197 0.0 3.2 0.00 0.00 0.00 88 1008.5
20260510091525 8 165 0.0 1.6 0.00 0.00 0.00 87 1008.3
20260510091009 9 128 0.0 1.6 0.00 0.00 0.00 86 1008.1
20260510090509 9 129 0.0 3.2 0.00 0.00 0.00 87 1008.2
20260510090027 10 134 0.0 4.8 0.00 0.00 0.00 87 1008.1
20260510085508 10 150 1.6 4.8 0.00 0.00 0.00 87 1008.0
20260510085009 10 181 0.0 3.2 0.00 0.00 0.00 87 1007.8
20260510084512 10 269 0.0 3.2 0.00 0.00 0.00 87 1007.9
20260510084007 10 330 0.0 3.2 0.00 0.00 0.00 87 1007.8
20260510083505 10 213 0.0 4.8 0.00 0.00 0.00 86 1007.8
20260510083017 10 180 0.0 4.8 0.00 0.00 0.00 86 1007.8
20260510082506 10 134 0.0 6.4 0.00 0.00 0.00 86 1007.6
20260510082005 10 177 0.0 6.4 0.00 0.00 0.00 86 1007.4
20260510081524 11 103 0.0 4.8 0.00 0.00 0.00 85 1007.6
20260510081010 11 141 0.0 6.4 0.00 0.00 0.00 85 1007.7
20260510080510 11 103 1.6 11.3 0.00 0.00 0.00 85 1007.7
20260510080023 11 146 3.2 11.3 0.00 0.00 0.00 85 1007.9
20260510075509 11 134 1.6 8.0 0.00 0.00 0.00 84 1007.9
20260510075010 11 121 3.2 8.0 0.00 0.00 0.00 84 1008.0
20260510074527 11 150 1.6 11.3 0.00 0.00 0.00 84 1008.0
20260510074010 11 152 3.2 11.3 0.00 0.00 0.00 84 1008.1
20260510073510 11 331 1.6 9.7 0.00 0.00 0.00 84 1008.2
20260510073014 11 113 1.6 9.7 0.00 0.00 0.00 84 1007.8
20260510072505 11 151 1.6 9.7 0.00 0.00 0.00 84 1007.7
20260510072008 11 192 1.6 9.7 0.00 0.00 0.00 84 1007.6
20260510071532 11 158 3.2 8.0 0.00 0.00 0.00 83 1007.6
20260510071005 11 148 3.2 9.7 0.00 0.00 0.00 83 1007.6
20260510070510 11 117 3.2 9.7 0.00 0.00 0.00 83 1007.5
20260510070022 11 148 1.6 8.0 0.00 0.00 0.00 83 1007.5
20260510065503 11 120 3.2 8.0 0.00 0.00 0.00 82 1007.8
20260510065003 11 118 3.2 8.0 0.00 0.00 0.00 82 1007.8
20260510064508 11 126 3.2 14.5 0.00 0.00 0.00 82 1008.0
20260510064003 11 148 1.6 14.5 0.00 0.00 0.00 82 1007.8
20260510063506 11 158 1.6 11.3 0.00 0.00 0.00 82 1007.8
20260510063013 11 115 3.2 9.7 0.00 0.00 0.00 82 1007.9
20260510062508 11 96 1.6 6.4 0.00 0.00 0.00 82 1007.8
20260510062007 11 214 1.6 8.0 0.00 0.00 0.00 82 1007.8
20260510061534 11 158 1.6 8.0 0.00 0.00 0.00 82 1007.8
20260510061007 11 130 1.6 9.7 0.00 0.00 0.00 82 1007.8
20260510060507 11 129 4.8 9.7 0.00 0.00 0.00 82 1007.8
20260510060005 11 193 1.6 9.7 0.00 0.00 0.00 82 1007.7
20260510055503 11 129 1.6 8.0 0.00 0.00 0.00 82 1007.8
20260510055004 11 146 1.6 8.0 0.00 0.00 0.00 82 1007.8
20260510054507 11 132 3.2 8.0 0.00 0.00 0.00 81 1007.8
20260510054003 11 104 1.6 9.7 0.00 0.00 0.00 81 1007.8
20260510053503 11 109 4.8 11.3 0.00 0.00 0.00 81 1007.8
20260510053009 11 129 4.8 11.3 0.00 0.00 0.00 81 1007.8
20260510052508 11 160 3.2 8.0 0.00 0.00 0.00 81 1007.8
20260510052007 11 217 3.2 11.3 0.00 0.00 0.00 81 1007.9
20260510051514 11 127 4.8 11.3 0.00 0.00 0.00 81 1007.8
20260510051003 11 187 3.2 11.3 0.00 0.00 0.00 81 1007.8
20260510050508 11 129 4.8 11.3 0.00 0.00 0.00 81 1007.8
20260510050015 11 114 3.2 11.3 0.00 0.00 0.00 81 1007.6
20260510045508 11 131 3.2 9.7 0.00 0.00 0.00 81 1007.5
20260510045011 11 65 3.2 9.7 0.00 0.00 0.00 81 1007.5
20260510044504 11 87 1.6 9.7 0.00 0.00 0.00 81 1007.6
20260510044004 11 148 1.6 11.3 0.00 0.00 0.00 80 1007.6
20260510043506 11 91 4.8 11.3 0.00 0.00 0.00 80 1007.6
20260510043013 11 127 1.6 8.0 0.00 0.00 0.00 80 1007.7
20260510042503 11 123 1.6 9.7 0.00 0.00 0.00 80 1007.5
20260510042006 11 46 1.6 9.7 0.00 0.00 0.00 80 1007.5
20260510041512 11 94 1.6 9.7 0.00 0.00 0.00 80 1007.5
20260510041004 11 187 3.2 11.3 0.00 0.00 0.00 81 1007.3
20260510040504 10 155 3.2 11.3 0.00 0.00 0.00 82 1007.2
20260510040015 10 153 1.6 11.3 0.00 0.00 0.00 83 1007.2
20260510035507 10 143 4.8 11.3 0.00 0.00 0.00 84 1007.2
20260510035008 10 219 3.2 11.3 0.00 0.00 0.00 85 1007.1
20260510034522 9 330 0.0 4.8 0.00 0.00 0.00 85 1007.2
20260510034011 9 272 0.0 3.2 0.00 0.00 0.00 85 1007.4
20260510033508 9 273 0.0 3.2 0.00 0.00 0.00 85 1007.6
20260510033004 9 129 1.6 3.2 0.00 0.00 0.00 85 1007.7
20260510032504 9 135 1.6 4.8 0.00 0.00 0.00 85 1007.8
20260510032004 9 172 1.6 4.8 0.00 0.00 0.00 85 1007.8
20260510031515 10 304 0.0 3.2 0.00 0.00 0.00 85 1007.9
20260510031004 10 131 0.0 4.8 0.00 0.00 0.00 85 1008.0
20260510030504 10 113 1.6 4.8 0.00 0.00 0.00 85 1008.0
20260510030019 10 161 0.0 3.2 0.00 0.00 0.00 85 1007.9
20260510025504 10 330 0.0 1.6 0.00 0.00 0.00 85 1008.0
20260510025006 10 127 0.0 1.6 0.00 0.00 0.00 84 1008.0
20260510024533 10 127 0.0 1.6 0.00 0.00 0.00 84 1008.1
20260510024006 10 127 0.0 1.6 0.00 0.00 0.00 84 1008.1
20260510023506 10 127 0.0 1.6 0.00 0.00 0.00 84 1008.1
20260510023019 10 141 0.0 8.0 0.00 0.00 0.00 84 1008.1
20260510022508 10 148 1.6 8.0 0.00 0.00 0.00 84 1008.1
20260510022008 10 214 1.6 6.4 0.00 0.00 0.00 84 1008.0
20260510021507 10 141 0.0 6.4 0.00 0.00 0.00 84 1008.0
20260510021003 10 165 1.6 6.4 0.00 0.00 0.00 84 1007.9
20260510020504 10 129 0.0 8.0 0.00 0.00 0.00 84 1007.8
20260510020012 10 88 1.6 8.0 0.00 0.00 0.00 84 1008.0
20260510015504 10 124 3.2 8.0 0.00 0.00 0.00 84 1008.2
20260510015004 10 248 0.0 4.8 0.00 0.00 0.00 84 1008.3
20260510014514 10 174 1.6 4.8 0.00 0.00 0.00 84 1008.3
20260510014007 10 178 0.0 3.2 0.00 0.00 0.00 84 1008.4
20260510013507 10 144 0.0 3.2 0.00 0.00 0.00 84 1008.2
20260510013020 10 251 0.0 4.8 0.00 0.00 0.00 84 1008.3
20260510012506 10 146 0.0 4.8 0.00 0.00 0.00 84 1008.4
20260510012009 10 143 1.6 4.8 0.00 0.00 0.00 84 1008.5
20260510011534 10 231 0.0 3.2 0.00 0.00 0.00 84 1008.5
20260510011009 10 153 0.0 3.2 0.00 0.00 0.00 84 1008.4
20260510010506 10 95 0.0 3.2 0.00 0.00 0.00 84 1008.6
20260510010008 10 134 1.6 4.8 0.00 0.00 0.00 84 1008.5
20260510005504 10 127 1.6 4.8 0.00 0.00 0.00 84 1008.5
20260510005004 10 148 1.6 4.8 0.00 0.00 0.00 84 1008.5
20260510004512 10 124 0.0 4.8 0.00 0.00 0.00 84 1008.7
20260510004004 10 143 1.6 3.2 0.00 0.00 0.00 84 1008.7
20260510003504 10 119 0.0 3.2 0.00 0.00 0.00 84 1008.8
20260510003043 10 162 0.0 3.2 0.00 0.00 0.00 84 1008.8
20260510002508 10 160 1.6 4.8 0.00 0.00 0.00 84 1008.8
20260510002008 10 139 1.6 4.8 0.00 0.00 0.00 84 1008.8
20260510001526 10 148 1.6 4.8 0.00 0.00 0.00 84 1008.7
20260510001009 10 127 0.0 3.2 0.00 0.00 0.00 84 1008.7
20260510000507 10 128 0.0 3.2 0.00 0.00 0.00 83 1008.7
20260510000023 10 164 0.0 3.2 0.00 0.00 0.00 83 1008.7
20260509235507 10 164 0.0 3.2 0.00 0.00 0.00 83 1008.7
20260509235010 10 133 0.0 3.2 0.00 0.00 0.00 83 1008.8
20260509234528 10 133 0.0 6.4 0.00 0.00 0.00 82 1008.7
20260509234004 10 138 0.0 6.4 0.00 0.00 0.00 82 1008.7
20260509233503 10 243 0.0 6.4 0.00 0.00 0.00 82 1008.7
20260509233021 10 115 0.0 8.0 0.00 0.00 0.00 82 1008.7
20260509232504 10 326 0.0 8.0 0.00 0.00 0.00 82 1008.7
20260509232007 10 150 0.0 8.0 0.00 0.00 0.00 82 1008.7
20260509231529 10 219 1.6 8.0 0.00 0.00 0.00 82 1008.6
20260509231010 11 121 1.6 8.0 0.00 0.00 0.00 82 1008.7
20260509230508 11 113 1.6 8.0 0.00 0.00 0.00 82 1008.7
20260509230030 11 293 1.6 9.7 0.00 0.00 0.00 81 1008.6
20260509225508 11 252 1.6 9.7 0.00 0.00 0.00 81 1008.6
20260509225009 11 353 1.6 8.0 0.00 0.00 0.00 81 1008.6
20260509224526 11 9 0.0 9.7 0.00 0.00 0.00 81 1008.6
20260509224010 11 148 1.6 9.7 0.00 0.00 0.00 80 1008.6
20260509223512 11 150 3.2 12.9 0.00 0.00 0.00 80 1008.5
20260509223012 11 133 0.0 12.9 0.00 0.00 0.00 80 1008.7
20260509222503 11 163 0.0 6.4 0.00 0.00 0.00 80 1008.7
20260509222007 11 136 1.6 6.4 0.00 0.00 0.00 80 1008.7
20260509221517 11 141 3.2 6.4 0.00 0.00 0.00 79 1008.8
20260509221006 11 160 0.0 4.8 0.00 0.00 0.00 79 1008.9
20260509220509 11 137 1.6 4.8 0.00 0.00 0.00 80 1008.8
20260509220020 11 255 0.0 8.0 0.00 0.00 0.00 81 1008.8
20260509215507 11 153 0.0 11.3 0.00 0.00 0.00 81 1008.8
20260509215007 11 167 0.0 11.3 0.00 0.00 0.00 81 1008.8
20260509214524 11 339 1.6 6.4 0.00 0.00 0.00 80 1008.9
20260509214010 11 184 1.6 4.8 0.00 0.00 0.00 80 1009.0
20260509213513 11 153 0.0 4.8 0.00 0.00 0.00 81 1009.0
20260509213026 11 125 0.0 6.4 0.00 0.00 0.00 81 1009.0
20260509212511 10 163 0.0 6.4 0.00 0.00 0.00 81 1009.1
20260509212013 10 161 0.0 4.8 0.00 0.00 0.00 81 1009.1
20260509211516 11 117 1.6 4.8 0.00 0.00 0.00 80 1009.1
20260509211009 11 165 1.6 4.8 0.00 0.00 0.00 80 1009.2
20260509210508 11 132 1.6 4.8 0.00 0.00 0.00 80 1009.2
20260509210023 11 172 1.6 9.7 0.00 0.00 0.00 80 1009.2
20260509205510 11 172 1.6 9.7 0.00 0.00 0.00 80 1009.3
20260509205007 11 135 3.2 8.0 0.00 0.00 0.00 80 1009.4
20260509204522 11 133 1.6 6.4 0.00 0.00 0.00 80 1009.3
20260509204012 11 157 1.6 6.4 0.00 0.00 0.00 79 1009.3
20260509203506 11 160 1.6 4.8 0.00 0.00 0.00 79 1009.4
20260509203007 11 148 0.0 6.4 0.00 0.00 0.00 78 1009.5
20260509202504 11 103 1.6 6.4 0.00 0.00 0.00 77 1009.6
20260509202005 11 138 0.0 9.7 0.00 0.00 0.00 77 1009.5
20260509201513 11 120 1.6 9.7 0.00 0.00 0.00 76 1009.5
20260509201008 12 146 1.6 6.4 0.00 0.00 0.00 75 1009.4
20260509200504 12 187 1.6 8.0 0.00 0.00 0.00 74 1009.4
20260509200022 12 174 1.6 8.0 0.00 0.00 0.00 74 1009.5
20260509195511 12 126 0.0 11.3 0.00 0.00 0.00 75 1009.6
20260509195007 12 41 3.2 11.3 0.00 0.00 0.00 73 1009.5
20260509194526 12 44 1.6 9.7 0.00 0.00 0.00 75 1009.6
20260509194008 11 117 1.6 9.7 0.00 0.00 0.00 75 1009.7
20260509193509 11 122 1.6 4.8 0.00 0.00 0.00 75 1009.7
20260509193024 11 186 0.0 8.0 0.00 0.00 0.00 75 1009.6
20260509192510 11 161 1.6 8.0 0.00 0.00 0.00 74 1009.7
20260509192010 11 136 0.0 3.2 0.00 0.00 0.00 75 1009.8
20260509191508 11 143 0.0 8.0 0.00 0.00 0.00 75 1009.8
20260509191005 11 201 3.2 8.0 0.00 0.00 0.00 74 1009.7
20260509190506 11 20 1.6 6.4 0.00 0.00 0.00 75 1009.7
20260509190016 11 139 1.6 6.4 0.00 0.00 0.00 75 1009.8
20260509185507 10 139 1.6 11.3 0.00 0.00 0.00 75 1009.9
20260509185009 10 109 4.8 11.3 0.00 0.00 0.00 73 1010.0
20260509184517 10 154 1.6 9.7 0.00 0.00 0.00 73 1010.1
20260509184011 10 223 1.6 11.3 0.00 0.00 0.00 73 1010.2
20260509183508 10 128 1.6 11.3 0.00 0.00 0.00 72 1010.3
20260509183027 11 245 3.2 8.0 0.00 0.00 0.00 70 1010.4
20260509182507 11 132 3.2 6.4 0.00 0.00 0.00 69 1010.4
20260509182011 11 315 1.6 6.4 0.00 0.00 0.00 69 1010.4
20260509181540 12 319 0.0 8.0 0.00 0.00 0.00 68 1010.3
20260509181014 12 158 3.2 9.7 0.00 0.00 0.00 67 1010.3
20260509180506 12 140 3.2 9.7 0.00 0.00 0.00 67 1010.3
20260509180008 12 106 3.2 11.3 0.00 0.00 0.00 67 1010.3
20260509175507 12 146 3.2 11.3 0.00 0.00 0.00 65 1010.3
20260509175009 12 141 3.2 9.7 0.00 0.00 0.00 65 1010.4
20260509174517 12 309 1.6 14.5 0.00 0.00 0.00 65 1010.5
20260509174009 12 137 3.2 14.5 0.00 0.00 0.00 64 1010.4
20260509173510 12 162 4.8 14.5 0.00 0.00 0.00 63 1010.4
20260509173024 12 210 3.2 11.3 0.00 0.00 0.00 64 1010.4
20260509172509 12 160 3.2 8.0 0.00 0.00 0.00 63 1010.5
20260509172009 12 101 1.6 11.3 0.00 0.00 0.00 61 1010.4
20260509171526 12 25 3.2 12.9 0.00 0.00 0.00 60 1010.5
20260509171009 12 110 4.8 14.5 0.00 0.00 0.00 59 1010.4
20260509170508 12 328 3.2 14.5 0.00 0.00 0.00 60 1010.4
20260509170026 12 194 3.2 12.9 0.00 0.00 0.00 60 1010.5
20260509165506 12 78 4.8 12.9 0.00 0.00 0.00 60 1010.5
20260509165006 12 146 3.2 9.7 0.00 0.00 0.00 60 1010.6
20260509164513 12 94 1.6 12.9 0.00 0.00 0.00 60 1010.6
20260509164007 12 130 3.2 12.9 0.00 0.00 0.00 58 1010.6
20260509163510 12 251 3.2 12.9 0.00 0.00 0.00 58 1010.7
20260509163027 12 224 3.2 12.9 0.00 0.00 0.00 57 1010.7
20260509162510 13 124 1.6 6.4 0.00 0.00 0.00 56 1010.8
20260509162008 13 146 1.6 11.3 0.00 0.00 0.00 55 1010.8
20260509161523 13 186 3.2 11.3 0.00 0.00 0.00 54 1011.0
20260509161011 13 109 1.6 8.0 0.00 0.00 0.00 53 1011.0
20260509160513 13 165 3.2 8.0 0.00 0.00 0.00 52 1011.1
20260509160025 13 335 3.2 12.9 0.00 0.00 0.00 50 1011.2
20260509155507 13 210 1.6 12.9 0.00 0.00 0.00 51 1011.2
20260509155010 14 96 3.2 12.9 0.00 0.00 0.00 50 1011.2
20260509154527 14 341 1.6 11.3 0.00 0.00 0.00 51 1011.3
20260509154013 14 231 3.2 8.0 0.00 0.00 0.00 51 1011.4
20260509153507 14 183 1.6 11.3 0.00 0.00 0.00 52 1011.4
20260509153014 14 179 3.2 11.3 0.00 0.00 0.00 52 1011.6
20260509152508 14 53 1.6 6.4 0.00 0.00 0.00 50 1011.7
20260509152010 14 340 1.6 4.8 0.00 0.00 0.00 52 1011.7
20260509151519 13 350 0.0 6.4 0.00 0.00 0.00 51 1011.7
20260509151007 13 142 1.6 6.4 0.00 0.00 0.00 50 1011.8
20260509150510 13 143 0.0 4.8 0.00 0.00 0.00 50 1011.7
20260509150022 13 142 1.6 4.8 0.00 0.00 0.00 50 1011.8
20260509145513 13 202 1.6 4.8 0.00 0.00 0.00 49 1011.8
20260509145008 13 56 1.6 6.4 0.00 0.00 0.00 52 1011.8
20260509144534 13 208 1.6 6.4 0.00 0.00 0.00 52 1011.8
20260509144010 13 152 1.6 6.4 0.00 0.00 0.00 51 1011.9
20260509143508 13 151 3.2 8.0 0.00 0.00 0.00 52 1011.9
20260509143026 13 143 3.2 8.0 0.00 0.00 0.00 52 1012.0
20260509142508 13 114 1.6 8.0 0.00 0.00 0.00 52 1012.0
20260509142008 13 145 3.2 8.0 0.00 0.00 0.00 51 1012.0
20260509141516 12 301 1.6 8.0 0.00 0.00 0.00 53 1012.1
20260509141014 12 94 1.6 4.8 0.00 0.00 0.00 54 1012.0
20260509140510 12 83 1.6 4.8 0.00 0.00 0.00 55 1012.0
20260509140021 12 246 1.6 4.8 0.00 0.00 0.00 55 1012.1
20260509135509 12 128 0.0 8.0 0.00 0.00 0.00 58 1012.2
20260509135013 12 169 0.0 8.0 0.00 0.00 0.00 58 1012.1
20260509134521 11 207 0.0 3.2 0.00 0.00 0.00 59 1012.2
20260509134007 11 167 1.6 8.0 0.00 0.00 0.00 60 1012.3
20260509133507 11 330 0.0 8.0 0.00 0.00 0.00 62 1011.9
20260509133029 10 131 3.2 8.0 0.00 0.00 0.00 61 1011.8
20260509132510 10 207 1.6 6.4 0.00 0.00 0.00 62 1011.9
20260509132013 10 344 1.6 3.2 0.00 0.00 0.00 64 1012.0
20260509131525 9 158 0.0 8.0 0.00 0.00 0.00 66 1012.1
20260509131011 9 121 1.6 8.0 0.00 0.00 0.00 64 1012.1
20260509130506 9 136 0.0 6.4 0.00 0.00 0.00 66 1012.2
20260509130020 8 139 3.2 6.4 0.00 0.00 0.00 65 1012.3
20260509125506 8 229 1.6 6.4 0.00 0.00 0.00 67 1012.3
20260509125007 8 355 1.6 4.8 0.00 0.00 0.00 67 1012.3
20260509124524 8 170 1.6 4.8 0.00 0.00 0.00 67 1012.5
20260509124007 8 59 1.6 4.8 0.00 0.00 0.00 68 1012.5
20260509123507 8 26 1.6 4.8 0.00 0.00 0.00 68 1012.6
20260509123025 7 293 0.0 6.4 0.00 0.00 0.00 69 1012.5
20260509122512 7 187 1.6 6.4 0.00 0.00 0.00 69 1012.5
20260509122009 7 165 0.0 8.0 0.00 0.00 0.00 69 1012.4
20260509121518 7 173 1.6 8.0 0.00 0.00 0.00 68 1012.5
20260509121007 7 143 1.6 6.4 0.00 0.00 0.00 68 1012.5
20260509120507 6 290 1.6 6.4 0.00 0.00 0.00 69 1012.5
20260509120017 6 257 1.6 6.4 0.00 0.00 0.00 70 1012.6
20260509115505 6 157 0.0 8.0 0.00 0.00 0.00 71 1012.6
20260509115006 6 229 0.0 8.0 0.00 0.00 0.00 71 1012.7
20260509114522 6 157 1.6 6.4 0.00 0.00 0.00 71 1012.6
20260509114007 6 156 1.6 6.4 0.00 0.00 0.00 72 1012.7
20260509113504 5 321 1.6 4.8 0.00 0.00 0.00 73 1012.6
20260509113005 5 211 1.6 4.8 0.00 0.00 0.00 75 1012.7
20260509112504 5 146 1.6 6.4 0.00 0.00 0.00 76 1012.7
20260509112003 4 134 1.6 6.4 0.00 0.00 0.00 78 1012.7
20260509111508 3 181 0.0 3.2 0.00 0.00 0.00 82 1012.8
20260509111004 3 160 0.0 0.0 0.00 0.00 0.00 85 1012.8
20260509110505 2 151 0.0 1.6 0.00 0.00 0.00 86 1012.9
20260509110015 2 151 0.0 1.6 0.00 0.00 0.00 88 1012.9
20260509105508 2 149 0.0 1.6 0.00 0.00 0.00 90 1012.9
20260509105007 1 120 0.0 1.6 0.00 0.00 0.00 93 1012.9
20260509104529 1 169 0.0 0.0 0.00 0.00 0.00 93 1012.9
20260509104006 0 169 0.0 0.0 0.00 0.00 0.00 92 1012.9
20260509103507 0 169 0.0 0.0 0.00 0.00 0.00 92 1012.9
20260509103021 0 169 0.0 0.0 0.00 0.00 0.00 91 1012.8
20260509102510 0 169 0.0 0.0 0.00 0.00 0.00 91 1012.7
20260509102004 0 169 0.0 0.0 0.00 0.00 0.00 91 1012.7
20260509101507 0 169 0.0 0.0 0.00 0.00 0.00 91 1012.5
20260509101007 0 169 0.0 0.0 0.00 0.00 0.00 91 1012.6